Вернуться в каталог

AEROCUBE 8D

АктивенНаукаPO
NORAD 41852·PAYLOAD·🇺🇸 United States

Запущен Nov 11, 2016 с Vandenberg Space Force Base

Loading…

Ближайшие Пролёты (ближайшие 24 часа)

TLE

СвежийSource: Space-Track

Эпоха: Sep 14, 2026, 11:02 UTC

1 41852U 16067E   26257.46005218  .00005767  00000-0  23100-3 0  9992
2 41852  98.0521 134.4301 0003457 159.7421 200.3953 15.25486117539673

Отслеживайте AEROCUBE 8D в реальном времени с AllMySat

Download on the App Store